Wetterdaten: aktuell Mittwoch, 24.04.2019 16:26
Datum Zeit Temperatur Feuchte A. Luftdruck Regen Wind Richtung Richtung Sonnenschein ET Solar Taupunkt Windchill Windben
24.04.2019 16:26 25,7 C 35 % 1003,2 hPa 0,0 l/m 15,6 km/h (3 Bft) SO 136 1 min 0,000 mm 524 W/m 9,1 C 25,7 C 22,5 km/h (4 Bft)
24.04.2019 16:25 25,7 C 35 % 1003,3 hPa 0,0 l/m 15,8 km/h (3 Bft) S-SO 147 1 min 0,000 mm 527 W/m 9,1 C 25,7 C 19,3 km/h (3 Bft)
24.04.2019 16:24 25,6 C 34 % 1003,3 hPa 0,0 l/m 13,0 km/h (3 Bft) O-SO 108 1 min 0,000 mm 529 W/m 8,6 C 25,6 C 19,3 km/h (3 Bft)
24.04.2019 16:23 25,6 C 35 % 1003,3 hPa 0,0 l/m 23,8 km/h (4 Bft) SO 146 2 min 0,000 mm 533 W/m 9,0 C 25,6 C 33,8 km/h (5 Bft)
24.04.2019 16:21 25,6 C 36 % 1003,3 hPa 0,0 l/m 23,3 km/h (4 Bft) S-SO 157 1 min 0,000 mm 536 W/m 9,4 C 25,6 C 29,0 km/h (5 Bft)
24.04.2019 16:20 25,5 C 35 % 1003,2 hPa 0,0 l/m 22,0 km/h (4 Bft) SO 131 1 min 0,000 mm 536 W/m 8,9 C 25,5 C 29,0 km/h (5 Bft)
24.04.2019 16:19 25,5 C 35 % 1003,2 hPa 0,0 l/m 20,6 km/h (4 Bft) SO 137 1 min 0,000 mm 540 W/m 8,9 C 25,5 C 27,4 km/h (5 Bft)
24.04.2019 16:18 25,5 C 34 % 1003,2 hPa 0,0 l/m 12,2 km/h (2 Bft) SO 129 1 min 0,000 mm 536 W/m 8,5 C 25,5 C 17,7 km/h (3 Bft)
24.04.2019 16:17 25,5 C 34 % 1003,2 hPa 0,0 l/m 15,7 km/h (3 Bft) SO 126 2 min 0,000 mm 540 W/m 8,5 C 25,5 C 33,8 km/h (5 Bft)
24.04.2019 16:15 25,4 C 35 % 1003,4 hPa 0,0 l/m 25,3 km/h (4 Bft) S-SO 155 1 min 0,000 mm 547 W/m 8,8 C 25,4 C 30,6 km/h (5 Bft)
24.04.2019 16:14 25,4 C 34 % 1003,4 hPa 0,0 l/m 23,0 km/h (4 Bft) O-SO 123 1 min 0,000 mm 552 W/m 8,4 C 25,4 C 29,0 km/h (5 Bft)
24.04.2019 16:13 25,6 C 35 % 1003,5 hPa 0,0 l/m 29,1 km/h (5 Bft) S-SO 150 1 min 0,000 mm 552 W/m 9,0 C 25,6 C 32,2 km/h (5 Bft)
24.04.2019 16:12 25,7 C 34 % 1003,4 hPa 0,0 l/m 22,1 km/h (4 Bft) SO 143 1 min 0,000 mm 552 W/m 8,6 C 25,7 C 29,0 km/h (5 Bft)
24.04.2019 16:11 25,7 C 34 % 1003,4 hPa 0,0 l/m 11,0 km/h (2 Bft) S 189 2 min 0,000 mm 552 W/m 8,6 C 25,7 C 19,3 km/h (3 Bft)
24.04.2019 16:09 25,7 C 35 % 1003,3 hPa 0,0 l/m 9,3 km/h (2 Bft) O-SO 114 1 min 0,000 mm 561 W/m 9,1 C 25,7 C 14,5 km/h (3 Bft)
24.04.2019 16:08 25,7 C 36 % 1003,4 hPa 0,0 l/m 5,0 km/h (1 Bft) O-SO 119 1 min 0,000 mm 559 W/m 9,5 C 25,7 C 12,9 km/h (3 Bft)
24.04.2019 16:07 25,6 C 35 % 1003,4 hPa 0,0 l/m 14,8 km/h (3 Bft) O-SO 111 1 min 0,000 mm 499 W/m 9,0 C 25,6 C 22,5 km/h (4 Bft)
24.04.2019 16:06 25,7 C 33 % 1003,4 hPa 0,0 l/m 15,2 km/h (3 Bft) SO 126 1 min 0,000 mm 566 W/m 8,2 C 25,7 C 22,5 km/h (4 Bft)
24.04.2019 16:05 25,8 C 33 % 1003,3 hPa 0,0 l/m 13,7 km/h (3 Bft) SO 135 1 min 0,000 mm 570 W/m 8,3 C 25,8 C 22,5 km/h (4 Bft)
24.04.2019 16:04 25,8 C 35 % 1003,3 hPa 0,0 l/m 13,6 km/h (3 Bft) SO 126 1 min 0,000 mm 570 W/m 9,2 C 25,8 C 25,7 km/h (4 Bft)
24.04.2019 16:03 25,7 C 36 % 1003,4 hPa 0,0 l/m 16,6 km/h (3 Bft) O 80 2 min 0,000 mm 575 W/m 9,5 C 25,7 C 25,7 km/h (4 Bft)
24.04.2019 16:01 26,0 C 34 % 1003,5 hPa 0,0 l/m 19,8 km/h (3 Bft) SO 138 1 min 0,559 mm 582 W/m 8,9 C 26,0 C 27,4 km/h (5 Bft)
24.04.2019 16:00 26,0 C 34 % 1003,5 hPa 0,0 l/m 17,5 km/h (3 Bft) SO 126 1 min 0,000 mm 587 W/m 8,9 C 26,0 C 25,7 km/h (4 Bft)
24.04.2019 15:59 25,9 C 35 % 1003,5 hPa 0,0 l/m 18,1 km/h (3 Bft) S-SO 168 1 min 0,000 mm 587 W/m 9,3 C 25,9 C 24,1 km/h (4 Bft)
24.04.2019 15:58 25,7 C 35 % 1003,4 hPa 0,0 l/m 16,8 km/h (3 Bft) S-SO 150 1 min 0,000 mm 591 W/m 9,1 C 25,7 C 20,9 km/h (4 Bft)
24.04.2019 15:57 25,4 C 36 % 1003,5 hPa 0,0 l/m 21,2 km/h (4 Bft) S-SO 156 1 min 0,000 mm 596 W/m 9,2 C 25,4 C 29,0 km/h (5 Bft)
24.04.2019 15:56 25,4 C 35 % 1003,5 hPa 0,0 l/m 21,1 km/h (4 Bft) S-SO 149 1 min 0,000 mm 603 W/m 8,8 C 25,4 C 27,4 km/h (5 Bft)
24.04.2019 15:55 25,6 C 33 % 1003,5 hPa 0,0 l/m 21,5 km/h (4 Bft) SO 144 1 min 0,000 mm 596 W/m 8,1 C 25,6 C 30,6 km/h (5 Bft)
24.04.2019 15:54 25,6 C 34 % 1003,4 hPa 0,0 l/m 17,2 km/h (3 Bft) O-SO 123 1 min 0,000 mm 594 W/m 8,6 C 25,6 C 27,4 km/h (5 Bft)
24.04.2019 15:53 25,7 C 34 % 1003,4 hPa 0,0 l/m 17,0 km/h (3 Bft) O-SO 109 1 min 0,000 mm 584 W/m 8,6 C 25,7 C 24,1 km/h (4 Bft)
24.04.2019 15:52 25,7 C 34 % 1003,4 hPa 0,0 l/m 17,6 km/h (3 Bft) SO 127 1 min 0,000 mm 587 W/m 8,6 C 25,7 C 22,5 km/h (4 Bft)
24.04.2019 15:51 25,8 C 34 % 1003,4 hPa 0,0 l/m 13,6 km/h (3 Bft) O-SO 117 1 min 0,000 mm 575 W/m 8,7 C 25,8 C 24,1 km/h (4 Bft)
24.04.2019 15:50 25,8 C 35 % 1003,4 hPa 0,0 l/m 14,8 km/h (3 Bft) O 86 1 min 0,000 mm 577 W/m 9,2 C 25,8 C 22,5 km/h (4 Bft)
24.04.2019 15:49 25,7 C 33 % 1003,4 hPa 0,0 l/m 14,0 km/h (3 Bft) S-SO 165 1 min 0,000 mm 601 W/m 8,2 C 25,7 C 19,3 km/h (3 Bft)
24.04.2019 15:48 25,6 C 34 % 1003,5 hPa 0,0 l/m 13,5 km/h (3 Bft) O-SO 119 1 min 0,000 mm 615 W/m 8,6 C 25,6 C 19,3 km/h (3 Bft)
24.04.2019 15:47 25,7 C 35 % 1003,5 hPa 0,0 l/m 11,7 km/h (2 Bft) O-SO 103 1 min 0,000 mm 610 W/m 9,1 C 25,7 C 19,3 km/h (3 Bft)
24.04.2019 15:46 25,6 C 36 % 1003,5 hPa 0,0 l/m 11,4 km/h (2 Bft) O 88 1 min 0,000 mm 612 W/m 9,4 C 25,6 C 14,5 km/h (3 Bft)
24.04.2019 15:45 25,4 C 36 % 1003,5 hPa 0,0 l/m 11,6 km/h (2 Bft) O 96 1 min 0,000 mm 599 W/m 9,2 C 25,4 C 22,5 km/h (4 Bft)
24.04.2019 15:44 25,3 C 34 % 1003,6 hPa 0,0 l/m 14,8 km/h (3 Bft) O-SO 123 1 min 0,000 mm 603 W/m 8,3 C 25,3 C 24,1 km/h (4 Bft)
24.04.2019 15:43 25,3 C 34 % 1003,5 hPa 0,0 l/m 18,5 km/h (3 Bft) O-SO 121 1 min 0,000 mm 601 W/m 8,3 C 25,3 C 24,1 km/h (4 Bft)
24.04.2019 15:42 25,3 C 35 % 1003,5 hPa 0,0 l/m 17,8 km/h (3 Bft) SO 140 1 min 0,000 mm 610 W/m 8,7 C 25,3 C 24,1 km/h (4 Bft)
24.04.2019 15:41 25,4 C 33 % 1003,5 hPa 0,0 l/m 20,0 km/h (4 Bft) S-SO 162 1 min 0,000 mm 608 W/m 7,9 C 25,4 C 29,0 km/h (5 Bft)
24.04.2019 15:40 25,6 C 34 % 1003,5 hPa 0,0 l/m 25,3 km/h (4 Bft) O-SO 120 1 min 0,000 mm 603 W/m 8,6 C 25,6 C 33,8 km/h (5 Bft)
24.04.2019 15:39 25,7 C 34 % 1003,6 hPa 0,0 l/m 22,2 km/h (4 Bft) S-SO 151 1 min 0,000 mm 619 W/m 8,6 C 25,7 C 29,0 km/h (5 Bft)
24.04.2019 15:38 25,6 C 35 % 1003,6 hPa 0,0 l/m 12,0 km/h (2 Bft) O-SO 122 1 min 0,000 mm 617 W/m 9,0 C 25,6 C 22,5 km/h (4 Bft)
24.04.2019 15:37 25,6 C 34 % 1003,5 hPa 0,0 l/m 9,2 km/h (2 Bft) S-SO 152 1 min 0,000 mm 619 W/m 8,6 C 25,6 C 12,9 km/h (3 Bft)
24.04.2019 15:36 25,7 C 35 % 1003,6 hPa 0,0 l/m 14,1 km/h (3 Bft) O-SO 118 1 min 0,000 mm 621 W/m 9,1 C 25,7 C 17,7 km/h (3 Bft)
24.04.2019 15:35 25,7 C 35 % 1003,6 hPa 0,0 l/m 12,4 km/h (2 Bft) SO 124 1 min 0,000 mm 624 W/m 9,1 C 25,7 C 17,7 km/h (3 Bft)
24.04.2019 15:34 25,8 C 32 % 1003,6 hPa 0,0 l/m 10,3 km/h (2 Bft) S-SO 160 1 min 0,000 mm 628 W/m 7,8 C 25,8 C 14,5 km/h (3 Bft)
24.04.2019 15:33 25,9 C 35 % 1003,7 hPa 0,0 l/m 14,3 km/h (3 Bft) O 84 1 min 0,000 mm 635 W/m 9,3 C 25,9 C 20,9 km/h (4 Bft)
24.04.2019 15:32 25,9 C 35 % 1003,8 hPa 0,0 l/m 18,4 km/h (3 Bft) SO 131 1 min 0,000 mm 635 W/m 9,3 C 25,9 C 29,0 km/h (5 Bft)
24.04.2019 15:31 25,9 C 33 % 1003,7 hPa 0,0 l/m 16,0 km/h (3 Bft) S-SO 152 1 min 0,000 mm 638 W/m 8,4 C 25,9 C 27,4 km/h (5 Bft)
24.04.2019 15:30 25,7 C 34 % 1003,7 hPa 0,0 l/m 11,6 km/h (2 Bft) SO 134 1 min 0,000 mm 649 W/m 8,6 C 25,7 C 14,5 km/h (3 Bft)
24.04.2019 15:29 25,5 C 34 % 1003,7 hPa 0,0 l/m 14,7 km/h (3 Bft) S-SO 150 1 min 0,000 mm 649 W/m 8,5 C 25,5 C 19,3 km/h (3 Bft)
24.04.2019 15:28 25,4 C 34 % 1003,7 hPa 0,0 l/m 16,2 km/h (3 Bft) SO 146 1 min 0,000 mm 647 W/m 8,4 C 25,4 C 22,5 km/h (4 Bft)
24.04.2019 15:27 25,4 C 33 % 1003,7 hPa 0,0 l/m 21,1 km/h (4 Bft) SO 124 1 min 0,000 mm 647 W/m 7,9 C 25,4 C 29,0 km/h (5 Bft)
24.04.2019 15:26 25,5 C 34 % 1003,7 hPa 0,0 l/m 23,4 km/h (4 Bft) O-SO 119 1 min 0,000 mm 647 W/m 8,5 C 25,5 C 29,0 km/h (5 Bft)
24.04.2019 15:25 25,4 C 35 % 1003,7 hPa 0,0 l/m 21,3 km/h (4 Bft) S-SO 153 1 min 0,000 mm 652 W/m 8,8 C 25,4 C 27,4 km/h (5 Bft)
24.04.2019 15:24 25,4 C 35 % 1003,7 hPa 0,0 l/m 21,7 km/h (4 Bft) S-SO 150 1 min 0,000 mm 652 W/m 8,8 C 25,4 C 30,6 km/h (5 Bft)
24.04.2019 15:23 25,5 C 33 % 1003,7 hPa 0,0 l/m 19,2 km/h (3 Bft) SO 144 1 min 0,000 mm 657 W/m 8,0 C 25,5 C 27,4 km/h (5 Bft)
24.04.2019 15:22 25,7 C 33 % 1003,7 hPa 0,0 l/m 15,6 km/h (3 Bft) SO 131 1 min 0,000 mm 668 W/m 8,2 C 25,7 C 27,4 km/h (5 Bft)
24.04.2019 15:21 25,7 C 33 % 1003,7 hPa 0,0 l/m 7,0 km/h (2 Bft) O-SO 103 1 min 0,000 mm 666 W/m 8,2 C 25,7 C 12,9 km/h (3 Bft)
24.04.2019 15:20 25,7 C 34 % 1003,7 hPa 0,0 l/m 6,5 km/h (2 Bft) SO 125 1 min 0,000 mm 666 W/m 8,6 C 25,7 C 11,3 km/h (2 Bft)
24.04.2019 15:19 25,7 C 34 % 1003,7 hPa 0,0 l/m 11,3 km/h (2 Bft) SO 134 1 min 0,000 mm 670 W/m 8,6 C 25,7 C 20,9 km/h (4 Bft)
24.04.2019 15:18 25,7 C 35 % 1003,8 hPa 0,0 l/m 11,4 km/h (2 Bft) O 90 1 min 0,000 mm 675 W/m 9,1 C 25,7 C 20,9 km/h (4 Bft)
24.04.2019 15:17 25,6 C 34 % 1003,7 hPa 0,0 l/m 18,9 km/h (3 Bft) O-SO 123 1 min 0,000 mm 673 W/m 8,6 C 25,6 C 27,4 km/h (5 Bft)
24.04.2019 15:16 25,6 C 35 % 1003,9 hPa 0,0 l/m 21,1 km/h (4 Bft) S-SO 159 1 min 0,000 mm 677 W/m 9,0 C 25,6 C 24,1 km/h (4 Bft)
24.04.2019 15:15 25,4 C 35 % 1003,8 hPa 0,0 l/m 18,2 km/h (3 Bft) SO 130 1 min 0,000 mm 679 W/m 8,8 C 25,4 C 25,7 km/h (4 Bft)
24.04.2019 15:14 25,3 C 34 % 1003,9 hPa 0,0 l/m 31,7 km/h (5 Bft) O-SO 102 1 min 0,000 mm 682 W/m 8,3 C 25,3 C 37,0 km/h (5 Bft)
24.04.2019 15:13 25,2 C 35 % 1003,8 hPa 0,0 l/m 14,7 km/h (3 Bft) S-SO 149 1 min 0,000 mm 686 W/m 8,6 C 25,2 C 29,0 km/h (5 Bft)
24.04.2019 15:12 25,2 C 31 % 1003,8 hPa 0,0 l/m 13,3 km/h (3 Bft) S-SO 148 1 min 0,000 mm 689 W/m 6,9 C 25,2 C 17,7 km/h (3 Bft)
24.04.2019 15:11 25,4 C 35 % 1003,9 hPa 0,0 l/m 23,8 km/h (4 Bft) S-SO 162 1 min 0,000 mm 689 W/m 8,8 C 25,4 C 32,2 km/h (5 Bft)
24.04.2019 15:10 25,4 C 34 % 1003,8 hPa 0,0 l/m 15,0 km/h (3 Bft) S-SO 152 1 min 0,000 mm 691 W/m 8,4 C 25,4 C 20,9 km/h (4 Bft)
24.04.2019 15:09 25,3 C 32 % 1003,7 hPa 0,0 l/m 13,6 km/h (3 Bft) SO 126 1 min 0,000 mm 691 W/m 7,4 C 25,3 C 19,3 km/h (3 Bft)
24.04.2019 15:08 25,3 C 35 % 1003,7 hPa 0,0 l/m 9,0 km/h (2 Bft) O 85 1 min 0,000 mm 693 W/m 8,7 C 25,3 C 19,3 km/h (3 Bft)
24.04.2019 15:07 25,2 C 34 % 1003,7 hPa 0,0 l/m 11,5 km/h (2 Bft) O-NO 74 1 min 0,000 mm 694 W/m 8,2 C 25,2 C 19,3 km/h (3 Bft)
24.04.2019 15:06 25,3 C 33 % 1003,8 hPa 0,0 l/m 12,5 km/h (2 Bft) O 96 1 min 0,000 mm 694 W/m 7,9 C 25,3 C 17,7 km/h (3 Bft)
24.04.2019 15:05 25,4 C 35 % 1003,8 hPa 0,0 l/m 13,9 km/h (3 Bft) O-SO 113 1 min 0,000 mm 701 W/m 8,8 C 25,4 C 19,3 km/h (3 Bft)
24.04.2019 15:04 25,4 C 35 % 1003,8 hPa 0,0 l/m 15,5 km/h (3 Bft) SO 138 1 min 0,000 mm 703 W/m 8,8 C 25,4 C 20,9 km/h (4 Bft)
24.04.2019 15:03 25,3 C 34 % 1003,8 hPa 0,0 l/m 11,7 km/h (2 Bft) SO 142 2 min 0,000 mm 708 W/m 8,3 C 25,3 C 22,5 km/h (4 Bft)
24.04.2019 15:01 25,3 C 32 % 1003,8 hPa 0,0 l/m 13,9 km/h (3 Bft) O 88 1 min 0,584 mm 715 W/m 7,4 C 25,3 C 19,3 km/h (3 Bft)
24.04.2019 15:00 25,4 C 35 % 1003,9 hPa 0,0 l/m 16,8 km/h (3 Bft) SO 137 1 min 0,000 mm 710 W/m 8,8 C 25,4 C 19,3 km/h (3 Bft)
24.04.2019 14:59 25,1 C 33 % 1003,9 hPa 0,0 l/m 20,4 km/h (4 Bft) SO 137 1 min 0,000 mm 677 W/m 7,7 C 25,1 C 24,1 km/h (4 Bft)
24.04.2019 14:58 24,9 C 34 % 1003,8 hPa 0,0 l/m 12,0 km/h (2 Bft) S-SO 150 1 min 0,000 mm 701 W/m 7,9 C 24,9 C 22,5 km/h (4 Bft)
24.04.2019 14:57 24,9 C 35 % 1003,7 hPa 0,0 l/m 9,1 km/h (2 Bft) O 97 1 min 0,000 mm 729 W/m 8,4 C 24,9 C 16,1 km/h (3 Bft)
24.04.2019 14:56 25,1 C 34 % 1003,8 hPa 0,0 l/m 10,2 km/h (2 Bft) O-SO 105 1 min 0,000 mm 731 W/m 8,1 C 25,1 C 17,7 km/h (3 Bft)
24.04.2019 14:55 25,1 C 34 % 1003,8 hPa 0,0 l/m 13,0 km/h (3 Bft) O 88 1 min 0,000 mm 693 W/m 8,1 C 25,1 C 17,7 km/h (3 Bft)
24.04.2019 14:54 25,1 C 35 % 1003,8 hPa 0,0 l/m 14,5 km/h (3 Bft) SO 130 1 min 0,000 mm 654 W/m 8,6 C 25,1 C 20,9 km/h (4 Bft)
24.04.2019 14:53 25,1 C 36 % 1003,9 hPa 0,0 l/m 21,3 km/h (4 Bft) O-SO 120 1 min 0,000 mm 647 W/m 9,0 C 25,1 C 27,4 km/h (5 Bft)
24.04.2019 14:52 25,1 C 35 % 1003,8 hPa 0,0 l/m 12,0 km/h (2 Bft) S-SO 157 1 min 0,000 mm 735 W/m 8,6 C 25,1 C 25,7 km/h (4 Bft)
24.04.2019 14:51 25,1 C 35 % 1003,9 hPa 0,0 l/m 11,2 km/h (2 Bft) O-SO 115 1 min 0,000 mm 731 W/m 8,6 C 25,1 C 16,1 km/h (3 Bft)
24.04.2019 14:50 24,9 C 35 % 1003,8 hPa 0,0 l/m 17,0 km/h (3 Bft) SO 139 1 min 0,000 mm 726 W/m 8,4 C 24,9 C 22,5 km/h (4 Bft)
24.04.2019 14:49 24,9 C 36 % 1004,0 hPa 0,0 l/m 16,7 km/h (3 Bft) SO 142 1 min 0,000 mm 673 W/m 8,8 C 24,9 C 22,5 km/h (4 Bft)
24.04.2019 14:48 24,9 C 33 % 1003,9 hPa 0,0 l/m 15,4 km/h (3 Bft) S-SO 150 1 min 0,000 mm 712 W/m 7,5 C 24,9 C 20,9 km/h (4 Bft)
24.04.2019 14:47 24,9 C 35 % 1003,9 hPa 0,0 l/m 19,6 km/h (3 Bft) O-SO 120 1 min 0,000 mm 737 W/m 8,4 C 24,9 C 24,1 km/h (4 Bft)
24.04.2019 14:46 24,8 C 35 % 1004,0 hPa 0,0 l/m 21,5 km/h (4 Bft) SO 144 1 min 0,000 mm 752 W/m 8,3 C 24,8 C 25,7 km/h (4 Bft)
24.04.2019 14:45 24,7 C 34 % 1003,9 hPa 0,0 l/m 21,4 km/h (4 Bft) SO 145 1 min 0,000 mm 707 W/m 7,8 C 24,7 C 29,0 km/h (5 Bft)
24.04.2019 14:44 24,6 C 35 % 1004,0 hPa 0,0 l/m 21,1 km/h (4 Bft) SO 130 1 min 0,000 mm 698 W/m 8,1 C 24,6 C 29,0 km/h (5 Bft)
24.04.2019 14:43 24,6 C 34 % 1003,8 hPa 0,0 l/m 18,7 km/h (3 Bft) S-SO 155 1 min 0,000 mm 446 W/m 7,7 C 24,6 C 25,7 km/h (4 Bft)
24.04.2019 14:42 24,6 C 35 % 1003,9 hPa 0,0 l/m 12,9 km/h (3 Bft) SO 135 1 min 0,000 mm 446 W/m 8,1 C 24,6 C 19,3 km/h (3 Bft)
_ Min-Zeit 05:35 14:31 17:44 - 19:09 - - - - - 05:30 05:30 19:09
Minimum _ 9,6 C 31 % 1000,7 hPa - 0,0 km/h (0 Bft) - - - - - 4,1 C 8,6 C 0,0 km/h (0 Bft)
_ Max-Zeit 16:01 05:31 10:53 17:00 15:14 - - 07:06 13:00 13:09 11:55 16:00 17:01
Maximum _ 26,1 C 69 % 1005,2 hPa 0,0 l/m 31,7 km/h
O-SO (5 Bft)
- - 2 min 0,635 mm 816 W/m 9,7 C 26,0 C 38,6 km/h
S-SO (6 Bft)
Durchschnitt _ 16,1 C 54 % 1002,9 hPa #0,0 l/m 10,2 km/h (2 Bft) S-SO - #9:18 h #4,394 mm 540 W/m 6,3 C 16,1 C 14,8 km/h (3 Bft)
Wetterstation Eggerszell